Regional Weather Roundup
Issued by NWS

Home | Current Version | Previous Version | Text Only | Print | Product List | Glossary On
Versions: 1 2 3 4 5 6 7 8 9 10 11 12 13 14 15 16 17 18 19 20 21 22 23 24 25 26 27 28 29 30 31 32 33 34 35 36 37 38 39 40 41 42 43 44 45 46 47 48 49 50
000
ASUS44 KOUN 122310
RWROK

WEATHER ROUNDUP FOR OKLAHOMA
NATIONAL WEATHER SERVICE NORMAN OK
500 PM CST FRI FEB 12 2016

NOTE: "FAIR" INDICATES FEW OR NO CLOUDS BELOW 12,000 FEET WITH NO
      SIGNIFICANT WEATHER AND/OR OBSTRUCTIONS TO VISIBILITY.

OKZ001>007-009>012-014-015-017-130000-
NORTHWEST OKLAHOMA AND THE PANHANDLE

CITY           SKY/WX    TMP DP  RH WIND       PRES   REMARKS
GAGE           SUNNY     56  31  38 E13       30.33S
GUYMON         SUNNY     62  28  27 SE9       30.29R
ENID/WOODRING  SUNNY     48  32  53 N12       30.40R
$$

OKZ016-021>023-033>039-044-045-130000-
SOUTHWEST OKLAHOMA

CITY           SKY/WX    TMP DP  RH WIND       PRES   REMARKS
LAWTON/REGL    SUNNY     63  35  35 NE14      30.31R
LAWTON/FT SILL SUNNY     62  37  39 NE15      30.29F
FREDERICK      SUNNY     65  38  36 NE15      30.27S
CLINTON        SUNNY     55  33  43 NE16      30.35R
HOBART         SUNNY     58  36  43 NE16      30.33S
ALTUS AFB      SUNNY     64  34  33 NE14      30.30R
$$

OKZ018>020-024>031-130000-
CENTRAL OKLAHOMA

CITY           SKY/WX    TMP DP  RH WIND       PRES   REMARKS
OKLAHOMA CITY  SUNNY     57  32  38 NE13      30.35R
OKC/WILEY POST SUNNY     55  31  39 NE13      30.36S
OKC/TINKER AFB SUNNY     56  31  38 NE15      30.34S
STILLWATER     SUNNY     51  27  39 NE14      30.39R
GUTHRIE        SUNNY     53  28  38 NE9       30.39R
$$

OKZ008-013-054>072-130000-
NORTHEAST OKLAHOMA

CITY           SKY/WX    TMP DP  RH WIND       PRES   REMARKS
TULSA          SUNNY     50  27  40 N10G18    30.39S
TULSA/JONES    SUNNY     50  26  39 N9        30.40S
PONCA CITY     SUNNY     49  27  42 NE10      30.41R
BARTLESVILLE   SUNNY     46  26  45 N12       30.43S
MUSKOGEE       SUNNY     51  27  39 N13       30.39R
$$

OKZ032-040>043-046>053-073>077-130000-
SOUTH CENTRAL/SOUTHEAST OKLAHOMA

CITY           SKY/WX    TMP DP  RH WIND       PRES   REMARKS
ARDMORE/DWNTWN SUNNY     66  30  26 NE10G16   30.30R
MCALESTER      MOSUNNY   56  31  38 NE10      30.36R
$$




USA.gov is the U.S. government's official web portal to all federal, state and local government web resources and services.